Location: Bidwell Hollow
(37.7387°N, 90.1707°W)
Time: 01:24:09
(UTC+00:00)

Transit 2A - Pass Details

Date: 23 May 2026
Orbit: 596 x 948 km, 66.7° (Epoch: 11 June)

Event Time Altitude Azimuth Distance (km) Brightness Sun altitude
Rises 18:49:56 0° 191° (S) 3,594 9.7 69.5°
Reaches altitude 10° 18:52:35 10° 186° (S) 2,638 9.2 69.2°
Maximum altitude 18:58:31 50° 113° (ESE) 1,139 7.6 68.4°
Drops below altitude 10° 19:04:08 10° 39° (NE) 2,495 8.5 67.7°
Sets 19:06:34 0° 34° (NE) 3,383 9.1 67.3°
